User: anonymous   Login
Location: Unspecified
(0.0000°N, 0.0000°E)
Time: 08:49:25
(UTC+00:00)
Language:

ONEWEB-0178 - Orbit

View from above orbital plane
View from above orbital plane
View from above satellite
View from above satellite

Ground track
Ground track

The orbit is defined by the following mean orbital elements,

1 48075U          26145.41568080 +.00000000 +00000-0 +79319-3 0 00009
2 48075  87.8931 324.7737 0001493  91.4601 268.6699 13.13470805    01
Epoch (UTC): 25 May 2026 09:58:34
Eccentricity: 0.0001493
inclination: 87.8931°
perigee height: 1209 km
apogee height: 1211 km
right ascension of ascending node: 324.7737°
argument of perigee: 91.4601°
revolutions per day: 13.13470805
mean anomaly at epoch: 268.6699°

The dashed part of the orbit path shows where the satellite is in the earth's shadow,  

DLR